VR2HK-13 Weather Reports


Display with metric or nautical units.
time (UTC)temp
F
wind
direction
speed
MPH
gust
MPH
rain 1hr
in
rain 24hr
in
rain mn
in
humidity
%
barometer
mb
20260902210959 79 139 10.0 19.0 0.00 0.00 0.00 74 998.8
20260902210851 79 161 11.0 19.0 0.00 0.00 0.00 75 998.8
20260902210500 79 216 9.0 16.0 0.00 0.00 0.00 74 998.7
20260902210342 79 227 8.0 16.0 0.00 0.00 0.00 75 998.8
20260902205959 79 239 10.0 17.0 0.00 0.00 0.00 74 998.7
20260902205831 79 251 8.0 18.0 0.00 0.00 0.00 74 998.8
20260902205500 79 221 10.0 18.0 0.00 0.00 0.00 74 998.7
20260902205321 79 211 10.0 17.0 0.00 0.00 0.00 74 998.8
20260902205000 79 205 10.0 21.0 0.00 0.00 0.00 74 998.8
20260902204810 79 234 12.0 21.0 0.00 0.00 0.00 74 998.7
20260902204500 79 186 13.0 21.0 0.00 0.00 0.00 74 998.7
20260902204301 79 213 10.0 19.0 0.00 0.00 0.00 74 998.7
20260902204000 79 219 9.0 20.0 0.00 0.00 0.00 74 998.7
20260902203751 79 222 10.0 20.0 0.00 0.00 0.00 74 998.7
20260902203459 79 211 14.0 20.0 0.00 0.00 0.00 74 998.5
20260902203241 79 227 13.0 21.0 0.00 0.00 0.00 74 998.6
20260902203000 79 223 10.0 21.0 0.00 0.00 0.00 74 998.6
20260902202731 80 254 7.0 17.0 0.00 0.00 0.00 74 998.6
20260902202459 80 238 11.0 17.0 0.00 0.00 0.00 74 998.5
20260902202221 80 233 10.0 17.0 0.00 0.00 0.00 73 998.4
20260902201959 80 146 8.0 13.0 0.00 0.00 0.00 73 998.4
20260902201711 80 133 7.0 13.0 0.00 0.00 0.00 73 998.4
20260902201500 80 134 7.0 13.0 0.00 0.00 0.00 73 998.4
20260902201201 80 152 1.0 13.0 0.00 0.00 0.00 73 998.4
20260902200959 80 43 2.0 13.0 0.00 0.00 0.00 73 998.5
20260902200651 80 141 4.0 15.0 0.00 0.00 0.00 73 998.5
20260902200500 80 19 6.0 15.0 0.00 0.00 0.00 73 998.6
20260902200140 80 188 8.0 15.0 0.00 0.00 0.00 73 998.6
20260902195959 80 192 9.0 19.0 0.00 0.00 0.00 73 998.5
20260902195631 80 114 9.0 19.0 0.00 0.00 0.00 73 998.6
20260902195500 80 207 1.0 15.0 0.00 0.00 0.00 73 998.7
20260902195120 80 126 10.0 17.0 0.00 0.00 0.00 73 998.6
20260902194959 80 187 8.0 17.0 0.00 0.00 0.00 73 998.6
20260902194611 80 77 4.0 15.0 0.00 0.00 0.00 73 998.7
20260902194459 80 147 6.0 17.0 0.00 0.00 0.00 73 998.6
20260902194101 80 220 10.0 20.0 0.00 0.00 0.00 73 998.7
20260902193959 80 219 6.0 20.0 0.00 0.00 0.00 73 998.7
20260902193550 80 197 8.0 18.0 0.00 0.00 0.00 73 998.7
20260902193459 80 133 8.0 24.0 0.00 0.00 0.00 73 998.7
20260902193041 80 145 13.0 24.0 0.00 0.00 0.00 73 998.7
20260902193000 80 127 13.0 19.0 0.00 0.00 0.00 73 998.8
20260902192530 80 112 5.0 24.0 0.00 0.00 0.00 73 998.8
20260902192459 80 140 3.0 24.0 0.00 0.00 0.00 73 998.8
20260902192021 80 161 5.0 18.0 0.00 0.00 0.00 73 998.8
20260902191959 80 149 6.0 18.0 0.00 0.00 0.00 73 998.9
20260902191510 80 203 10.0 18.0 0.00 0.00 0.00 73 998.9
20260902191459 80 137 9.0 18.0 0.00 0.00 0.00 73 998.9
20260902191001 80 159 10.0 18.0 0.00 0.00 0.00 74 998.9
20260902190959 80 119 10.0 18.0 0.00 0.00 0.00 74 998.9
20260902190459 80 133 12.0 21.0 0.00 0.00 0.00 74 999.0
20260902190450 80 200 12.0 21.0 0.00 0.00 0.00 74 999.0
20260902185959 80 126 8.0 18.0 0.00 0.00 0.00 73 999.0
20260902185940 80 175 8.0 18.0 0.00 0.00 0.00 73 999.0
20260902185458 80 167 2.0 17.0 0.00 0.00 0.00 74 999.0
20260902185430 80 226 4.0 17.0 0.00 0.00 0.00 74 998.9
20260902184959 80 197 9.0 19.0 0.00 0.00 0.00 74 999.0
20260902184920 80 161 11.0 19.0 0.00 0.00 0.00 74 999.0
20260902184458 80 207 10.0 23.0 0.00 0.00 0.00 74 999.0
20260902184411 80 280 14.0 26.0 0.00 0.00 0.00 74 998.9
20260902183959 80 216 13.0 26.0 0.00 0.00 0.00 74 998.9
20260902183900 80 199 12.0 28.0 0.00 0.00 0.00 74 999.1
20260902183459 80 207 18.0 28.0 0.00 0.00 0.00 74 999.0
20260902183351 80 220 17.0 25.0 0.00 0.00 0.00 74 998.9
20260902182959 80 256 15.0 24.0 0.00 0.00 0.00 74 999.0
20260902182459 80 276 8.0 25.0 0.00 0.00 0.00 74 999.1
20260902182330 80 189 15.0 22.0 0.00 0.00 0.00 74 999.0
20260902181958 80 184 9.0 21.0 0.00 0.00 0.00 74 999.1
20260902181820 80 232 13.0 23.0 0.00 0.00 0.00 74 999.1
20260902181459 80 266 16.0 23.0 0.00 0.00 0.00 74 999.2
20260902181310 80 180 10.0 22.0 0.00 0.00 0.00 74 999.3
20260902180958 80 184 13.0 22.0 0.00 0.00 0.00 74 999.3
20260902180759 80 208 14.0 22.0 0.00 0.00 0.00 74 999.4
20260902180458 80 208 12.0 22.0 0.00 0.00 0.00 74 999.5
20260902175959 80 235 13.0 20.0 0.00 0.00 0.00 74 999.6
20260902175739 80 253 10.0 15.0 0.00 0.00 0.00 74 999.7
20260902175458 80 157 10.0 16.0 0.00 0.00 0.00 74 999.7
20260902174958 80 128 8.0 17.0 0.00 0.00 0.00 74 999.8
20260902174720 80 202 9.0 17.0 0.00 0.00 0.00 74 999.8
20260902174459 80 222 10.0 19.0 0.00 0.00 0.00 75 999.9
20260902174209 80 235 13.0 19.0 0.00 0.00 0.00 74 999.9
20260902173958 80 169 10.0 19.0 0.00 0.00 0.00 74 999.9
20260902173700 80 174 11.0 19.0 0.00 0.00 0.00 74 999.9
20260902173459 80 148 10.0 18.0 0.00 0.00 0.00 74 999.9
20260902173149 80 223 8.0 15.0 0.00 0.00 0.00 74 999.8
20260902172958 80 187 9.0 20.0 0.00 0.00 0.00 74 999.9
20260902172458 80 222 12.0 18.0 0.00 0.00 0.00 74 999.9
20260902172129 80 183 11.0 19.0 0.00 0.00 0.00 74 999.8
20260902171958 80 216 11.0 20.0 0.00 0.00 0.00 74 999.7
20260902171458 80 202 16.0 23.0 0.00 0.00 0.00 74 999.8
20260902171109 80 197 13.0 21.0 0.00 0.00 0.00 74 999.9
20260902170958 80 234 10.0 15.0 0.00 0.00 0.00 74 999.9
20260902170458 80 236 13.0 21.0 0.00 0.00 0.00 74 999.9
20260902170050 80 190 12.0 20.0 0.00 0.00 0.00 74 999.8
20260902165958 81 228 11.0 22.0 0.00 0.00 0.00 74 999.9
20260902165539 81 175 13.0 21.0 0.00 0.00 0.00 74 999.9
20260902165458 81 216 12.0 24.0 0.00 0.00 0.00 74 999.9
20260902165029 81 231 14.0 24.0 0.00 0.00 0.00 73 1000.0
20260902164958 81 163 8.0 14.0 0.00 0.00 0.00 73 1000.0
20260902164458 81 130 7.0 16.0 0.00 0.00 0.00 73 1000.0
20260902164009 81 113 7.0 27.0 0.00 0.00 0.00 73 999.9
20260902163958 81 181 6.0 27.0 0.00 0.00 0.00 73 999.9
20260902163500 81 303 5.0 18.0 0.00 0.00 0.00 72 999.9
20260902163457 81 305 5.0 18.0 0.00 0.00 0.00 72 999.8
20260902162958 81 218 5.0 15.0 0.00 0.00 0.00 73 999.9
20260902162949 81 199 5.0 15.0 0.00 0.00 0.00 73 999.9
20260902162457 81 167 10.0 19.0 0.00 0.00 0.00 73 999.8
20260902162439 81 215 10.0 17.0 0.00 0.00 0.00 73 999.8
20260902161958 81 132 6.0 11.0 0.00 0.00 0.00 73 999.9
20260902161458 81 173 7.0 13.0 0.00 0.00 0.00 73 999.8
20260902161419 81 157 8.0 13.0 0.00 0.00 0.00 73 999.8
20260902160957 81 201 9.0 17.0 0.00 0.00 0.00 74 999.8
20260902160909 81 200 8.0 18.0 0.00 0.00 0.00 73 999.8
20260902160458 81 141 11.0 18.0 0.00 0.00 0.00 74 999.9
20260902160359 81 179 8.0 14.0 0.00 0.00 0.00 74 999.8
20260902155957 81 129 6.0 15.0 0.00 0.00 0.00 73 999.9
20260902155849 81 148 5.0 16.0 0.00 0.00 0.00 73 999.9
20260902155457 82 247 8.0 16.0 0.00 0.00 0.00 73 999.9
20260902155339 82 294 9.0 16.0 0.00 0.00 0.00 73 999.9
20260902154958 82 235 7.0 14.0 0.00 0.00 0.00 73 1000.0
20260902154457 82 175 9.0 14.0 0.00 0.00 0.00 72 999.9
20260902154319 82 137 6.0 24.0 0.00 0.00 0.00 72 999.9
20260902153958 82 116 8.0 24.0 0.00 0.00 0.00 72 999.9
20260902153809 82 37 9.0 18.0 0.00 0.00 0.00 72 999.9
20260902153457 82 12 10.0 18.0 0.00 0.00 0.00 72 1000.0
20260902153259 82 23 6.0 18.0 0.00 0.00 0.00 72 1000.0
20260902152958 82 319 1.0 10.0 0.00 0.00 0.00 72 999.9
20260902152749 82 16 2.0 10.0 0.00 0.00 0.00 72 999.9
20260902152457 82 38 3.0 10.0 0.00 0.00 0.00 72 999.9
20260902151957 82 58 4.0 9.0 0.00 0.00 0.00 72 1000.0
20260902151729 82 208 3.0 7.0 0.00 0.00 0.00 72 1000.0
20260902151457 82 53 3.0 9.0 0.00 0.00 0.00 72 1000.1
20260902151218 82 30 3.0 9.0 0.00 0.00 0.00 72 1000.0
20260902150957 82 23 3.0 7.0 0.00 0.00 0.00 72 1000.0
20260902150709 82 22 5.0 11.0 0.00 0.00 0.00 72 999.9
20260902150457 82 196 6.0 14.0 0.00 0.00 0.00 72 1000.0
20260902145957 82 62 7.0 21.0 0.00 0.00 0.00 72 1000.1
20260902145648 82 218 10.0 19.0 0.00 0.00 0.00 72 1000.1
20260902145457 82 38 8.0 13.0 0.00 0.00 0.00 72 1000.1
20260902145139 82 129 3.0 19.0 0.00 0.00 0.00 73 1000.2
20260902144958 82 158 8.0 19.0 0.00 0.00 0.00 73 1000.2
20260902144628 82 193 9.0 14.0 0.00 0.00 0.00 73 1000.2
20260902144457 82 104 6.0 18.0 0.00 0.00 0.00 72 1000.3
20260902144118 82 168 5.0 18.0 0.00 0.00 0.00 73 1000.3
20260902143957 82 190 10.0 15.0 0.00 0.00 0.00 73 1000.3
20260902143609 82 71 4.0 17.0 0.00 0.00 0.00 73 1000.4
20260902143456 82 127 7.0 17.0 0.00 0.00 0.00 73 1000.4
20260902143058 82 157 5.0 17.0 0.00 0.00 0.00 73 1000.3
20260902142957 82 170 5.0 17.0 0.00 0.00 0.00 73 1000.2
20260902142549 82 193 9.0 16.0 0.00 0.00 0.00 73 1000.4
20260902142457 82 128 10.0 16.0 0.00 0.00 0.00 73 1000.3
20260902142038 82 143 8.0 24.0 0.00 0.00 0.00 73 1000.3
20260902141957 82 116 9.0 24.0 0.00 0.00 0.00 73 1000.3
20260902141457 82 165 10.0 16.0 0.00 0.00 0.00 73 1000.3
20260902141018 82 188 8.0 17.0 0.00 0.00 0.00 73 1000.3
20260902140957 82 177 7.0 17.0 0.00 0.00 0.00 73 1000.3
20260902140508 82 154 10.0 17.0 0.00 0.00 0.00 73 1000.3
20260902140456 82 125 10.0 17.0 0.00 0.00 0.00 73 1000.3
20260902135959 83 189 6.0 18.0 0.00 0.00 0.00 73 1000.1
20260902135957 83 155 6.0 18.0 0.00 0.00 0.00 73 1000.1
20260902135456 83 130 8.0 21.0 0.00 0.00 0.00 73 1000.1
20260902134956 83 169 8.0 18.0 0.00 0.00 0.00 73 1000.1
20260902134938 83 180 8.0 18.0 0.00 0.00 0.00 73 1000.0
20260902134457 83 24 7.0 16.0 0.00 0.00 0.00 72 1000.1
20260902134428 83 348 6.0 16.0 0.00 0.00 0.00 73 1000.1
20260902133956 83 160 8.0 27.0 0.00 0.00 0.00 72 1000.2
20260902133917 83 174 10.0 27.0 0.00 0.00 0.00 72 1000.1
20260902133456 83 228 11.0 24.0 0.00 0.00 0.00 72 1000.0
20260902133408 83 138 10.0 24.0 0.00 0.00 0.00 72 1000.0
20260902132957 83 135 4.0 15.0 0.00 0.00 0.00 72 1000.0
20260902132858 83 92 7.0 15.0 0.00 0.00 0.00 72 1000.1
20260902132456 83 50 3.0 25.0 0.00 0.00 0.00 72 1000.1
20260902132347 83 208 4.0 25.0 0.00 0.00 0.00 72 1000.0
20260902131956 83 129 6.0 19.0 0.00 0.00 0.00 72 1000.1
20260902131838 83 188 5.0 19.0 0.00 0.00 0.00 72 1000.0
20260902131456 83 308 9.0 15.0 0.00 0.00 0.00 72 1000.0
20260902131327 83 71 7.0 21.0 0.00 0.00 0.00 72 999.9
20260902130956 83 41 10.0 21.0 0.00 0.00 0.00 72 999.9
20260902130817 83 222 9.0 17.0 0.00 0.00 0.00 72 999.8
20260902130456 83 49 1.0 10.0 0.00 0.00 0.00 72 999.8
20260902130308 83 53 6.0 14.0 0.00 0.00 0.00 72 999.8
20260902125956 83 133 5.0 14.0 0.00 0.00 0.00 72 999.7
20260902125757 83 62 5.0 12.0 0.00 0.00 0.00 72 999.7
20260902125456 84 56 7.0 11.0 0.00 0.00 0.00 72 999.7
20260902125247 84 88 3.0 11.0 0.00 0.00 0.00 72 999.7
20260902124956 84 113 2.0 11.0 0.00 0.00 0.00 72 999.7
20260902124738 84 113 2.0 8.0 0.00 0.00 0.00 72 999.6
20260902124455 84 4 1.0 13.0 0.00 0.00 0.00 72 999.6
20260902124227 84 98 7.0 13.0 0.00 0.00 0.00 72 999.5
20260902123956 84 117 2.0 10.0 0.00 0.00 0.00 72 999.6
20260902123717 84 134 2.0 12.0 0.00 0.00 0.00 72 999.5
20260902123456 84 169 8.0 12.0 0.00 0.00 0.00 72 999.5
20260902123207 84 15 5.0 11.0 0.00 0.00 0.00 72 999.6
20260902122956 84 41 4.0 17.0 0.00 0.00 0.00 72 999.5
20260902122657 84 77 7.0 24.0 0.00 0.00 0.00 72 999.5
20260902122456 84 130 8.0 24.0 0.00 0.00 0.00 72 999.5
20260902122148 84 40 8.0 13.0 0.00 0.00 0.00 72 999.6
20260902121955 84 205 6.0 13.0 0.00 0.00 0.00 72 999.5
20260902121456 84 59 4.0 14.0 0.00 0.00 0.00 72 999.5
20260902121127 84 75 2.0 15.0 0.00 0.00 0.00 72 999.4
20260902120956 84 106 7.0 23.0 0.00 0.00 0.00 72 999.4
20260902120616 84 45 11.0 28.0 0.00 0.00 0.00 72 999.4
20260902120455 84 197 13.0 28.0 0.00 0.00 0.00 72 999.2
20260902120107 84 135 5.0 10.0 0.00 0.00 0.00 72 999.3
20260902115955 84 141 5.0 17.0 0.00 0.00 0.00 72 999.4
20260902115557 84 169 7.0 21.0 0.00 0.00 0.00 72 999.2
20260902115456 84 101 9.0 21.0 0.00 0.00 0.00 72 999.3
20260902115047 84 71 3.0 17.0 0.00 0.00 0.00 72 999.2
20260902114955 84 22 4.0 17.0 0.00 0.00 0.00 72 999.2
20260902114537 84 64 6.0 26.0 0.00 0.00 0.00 72 999.0
20260902114455 84 10 3.0 26.0 0.00 0.00 0.00 72 999.1
20260902114027 84 193 6.0 16.0 0.00 0.00 0.00 72 999.0
20260902113956 84 108 4.0 16.0 0.00 0.00 0.00 72 999.0
20260902113517 84 23 6.0 18.0 0.00 0.00 0.00 72 998.9
20260902113455 84 204 4.0 18.0 0.00 0.00 0.00 72 998.9
20260902113007 85 80 2.0 10.0 0.00 0.00 0.00 72 998.9
20260902112956 85 29 2.0 11.0 0.00 0.00 0.00 72 998.9
20260902112457 85 54 6.0 11.0 0.00 0.00 0.00 72 998.8
20260902112455 85 28 6.0 11.0 0.00 0.00 0.00 72 998.8
20260902111955 85 343 1.0 16.0 0.00 0.00 0.00 72 998.9
20260902111947 85 30 1.0 16.0 0.00 0.00 0.00 72 998.8
20260902111455 85 14 8.0 25.0 0.00 0.00 0.00 72 998.8
20260902111437 85 322 9.0 25.0 0.00 0.00 0.00 72 998.7
20260902110955 85 180 4.0 8.0 0.00 0.00 0.00 72 998.7
20260902110926 85 50 5.0 8.0 0.00 0.00 0.00 72 998.8
20260902110455 85 50 3.0 9.0 0.00 0.00 0.00 72 998.6
20260902110417 85 145 4.0 9.0 0.00 0.00 0.00 72 998.6
20260902105955 85 109 4.0 12.0 0.00 0.00 0.00 72 998.6
20260902105906 85 123 6.0 17.0 0.00 0.00 0.00 72 998.5
20260902105455 85 73 9.0 17.0 0.00 0.00 0.00 72 998.5
20260902105357 85 130 4.0 9.0 0.00 0.00 0.00 72 998.5
20260902104956 85 129 4.0 20.0 0.00 0.00 0.00 72 998.5
20260902104846 85 45 7.0 20.0 0.00 0.00 0.00 72 998.5
20260902104455 85 45 8.0 33.0 0.00 0.00 0.00 72 998.6
20260902104337 85 45 8.0 33.0 0.00 0.00 0.00 72 998.5
20260902103956 85 38 5.0 12.0 0.00 0.00 0.00 72 998.5
20260902103826 85 69 6.0 12.0 0.00 0.00 0.00 72 998.5
20260902103455 85 129 6.0 11.0 0.00 0.00 0.00 72 998.4
20260902103316 86 357 5.0 11.0 0.00 0.00 0.00 72 998.4
20260902102955 86 47 3.0 14.0 0.00 0.00 0.00 72 998.3
20260902102807 86 119 5.0 18.0 0.00 0.00 0.00 72 998.2
20260902102455 86 284 7.0 18.0 0.00 0.00 0.00 71 998.3
20260902101956 86 23 4.0 11.0 0.00 0.00 0.00 71 998.2
20260902101747 86 52 6.0 9.0 0.00 0.00 0.00 71 998.3
20260902101454 86 168 5.0 14.0 0.00 0.00 0.00 72 998.3
20260902101236 86 69 7.0 14.0 0.00 0.00 0.00 72 998.2
20260902100955 86 70 4.0 14.0 0.00 0.00 0.00 72 998.1
20260902100727 86 40 9.0 14.0 0.00 0.00 0.00 72 998.2
20260902100454 86 47 3.0 7.0 0.00 0.00 0.00 72 998.2
20260902100216 86 1 1.0 7.0 0.00 0.00 0.00 71 998.2
20260902095955 86 358 5.0 11.0 0.00 0.00 0.00 71 998.1
20260902095706 86 85 6.0 11.0 0.00 0.00 0.00 71 998.2
20260902095455 86 130 3.0 7.0 0.00 0.00 0.00 71 998.1
20260902095156 86 109 2.0 7.0 0.00 0.00 0.00 71 998.1
20260902094955 86 47 2.0 8.0 0.00 0.00 0.00 71 998.1
20260902094646 87 19 3.0 8.0 0.00 0.00 0.00 71 998.1
20260902094455 87 82 2.0 8.0 0.00 0.00 0.00 71 998.0
20260902094136 87 44 4.0 14.0 0.00 0.00 0.00 71 998.0
20260902093954 87 64 3.0 14.0 0.00 0.00 0.00 71 997.9
20260902093626 87 89 2.0 10.0 0.00 0.00 0.00 71 998.0
20260902093455 87 44 4.0 10.0 0.00 0.00 0.00 71 998.0
20260902093116 87 95 5.0 8.0 0.00 0.00 0.00 71 997.9
20260902092954 87 21 3.0 8.0 0.00 0.00 0.00 71 997.9
20260902092606 87 129 3.0 16.0 0.00 0.00 0.00 71 997.8
20260902092455 87 55 6.0 16.0 0.00 0.00 0.00 71 997.9
20260902092056 87 170 8.0 19.0 0.00 0.00 0.00 71 997.8
20260902091955 87 177 8.0 30.0 0.00 0.00 0.00 71 997.7
20260902091546 87 167 20.0 30.0 0.00 0.00 0.00 71 997.8
20260902091454 87 160 12.0 22.0 0.00 0.00 0.00 71 997.7
20260902090954 87 180 9.0 23.0 0.00 0.00 0.00 71 997.7
20260902090525 87 188 12.0 20.0 0.00 0.00 0.00 71 997.7
20260902090454 87 191 12.0 20.0 0.00 0.00 0.00 71 997.7
20260902090016 87 114 8.0 22.0 0.00 0.00 0.00 71 997.7
20260902085954 87 147 11.0 22.0 0.00 0.00 0.00 71 997.8
20260902085505 88 160 4.0 18.0 0.00 0.00 0.00 70 997.7
20260902085454 88 161 4.0 18.0 0.00 0.00 0.00 70 997.7
20260902084957 87 202 4.0 16.0 0.00 0.00 0.00 71 997.7
20260902084954 87 129 4.0 16.0 0.00 0.00 0.00 71 997.7
20260902084454 87 94 7.0 19.0 0.00 0.00 0.00 71 997.7
20260902084445 87 142 6.0 19.0 0.00 0.00 0.00 71 997.6
20260902083954 88 169 9.0 20.0 0.00 0.00 0.00 71 997.7
20260902083935 88 158 5.0 20.0 0.00 0.00 0.00 71 997.7
20260902083454 87 165 6.0 19.0 0.00 0.00 0.00 71 997.7
20260902083426 87 32 6.0 19.0 0.00 0.00 0.00 72 997.6
20260902082954 87 84 7.0 16.0 0.00 0.00 0.00 72 997.6
20260902082915 87 170 8.0 17.0 0.00 0.00 0.00 72 997.6
20260902082454 87 157 10.0 17.0 0.00 0.00 0.00 72 997.6
20260902082406 87 165 11.0 16.0 0.00 0.00 0.00 72 997.6
20260902081953 87 47 3.0 8.0 0.00 0.00 0.00 72 997.6
20260902081855 87 80 2.0 9.0 0.00 0.00 0.00 72 997.6
20260902081454 87 89 6.0 21.0 0.00 0.00 0.00 72 997.5
20260902081345 87 174 9.0 21.0 0.00 0.00 0.00 72 997.6
20260902080954 88 219 12.0 21.0 0.00 0.00 0.00 71 997.4
20260902080835 88 238 14.0 24.0 0.00 0.00 0.00 71 997.5
20260902080454 88 159 10.0 24.0 0.00 0.00 0.00 70 997.5
20260902080325 88 176 11.0 23.0 0.00 0.00 0.00 70 997.4
20260902075954 89 162 12.0 23.0 0.00 0.00 0.00 70 997.4
20260902075815 89 169 7.0 22.0 0.00 0.00 0.00 70 997.4
20260902075453 89 192 12.0 21.0 0.00 0.00 0.00 69 997.4
20260902075306 89 360 9.0 21.0 0.00 0.00 0.00 69 997.4
20260902074954 89 161 9.0 23.0 0.00 0.00 0.00 70 997.4
20260902074755 89 221 10.0 23.0 0.00 0.00 0.00 69 997.3
20260902074453 89 221 12.0 26.0 0.00 0.00 0.00 69 997.4
20260902074245 90 237 17.0 26.0 0.00 0.00 0.00 69 997.4
20260902073953 90 210 2.0 15.0 0.00 0.00 0.00 69 997.4
20260902073735 90 103 8.0 25.0 0.00 0.00 0.00 69 997.5
20260902073454 90 133 10.0 25.0 0.00 0.00 0.00 68 997.4
20260902073225 90 178 6.0 15.0 0.00 0.00 0.00 68 997.4
20260902072953 90 44 6.0 15.0 0.00 0.00 0.00 68 997.6
20260902072715 90 265 1.0 12.0 0.00 0.00 0.00 69 997.4
20260902072454 90 148 5.0 21.0 0.00 0.00 0.00 69 997.4
20260902072205 90 126 10.0 21.0 0.00 0.00 0.00 68 997.3
20260902071953 90 147 10.0 17.0 0.00 0.00 0.00 68 997.4
20260902071655 90 219 3.0 10.0 0.00 0.00 0.00 69 997.4
20260902071453 90 104 4.0 14.0 0.00 0.00 0.00 68 997.4
20260902071145 90 54 5.0 15.0 0.00 0.00 0.00 69 997.4
20260902070953 90 1 3.0 15.0 0.00 0.00 0.00 69 997.5
20260902070634 90 209 9.0 24.0 0.00 0.00 0.00 68 997.5
20260902070453 90 152 4.0 24.0 0.00 0.00 0.00 69 997.5
20260902070125 90 216 14.0 24.0 0.00 0.00 0.00 68 997.4
20260902065954 90 221 2.0 11.0 0.00 0.00 0.00 69 997.5
20260902065615 90 25 5.0 9.0 0.00 0.00 0.00 69 997.6
20260902065453 89 224 3.0 7.0 0.00 0.00 0.00 69 997.6
20260902065105 89 162 1.0 14.0 0.00 0.00 0.00 70 997.7
20260902064953 89 51 5.0 14.0 0.00 0.00 0.00 69 997.7
20260902064554 89 60 5.0 14.0 0.00 0.00 0.00 70 997.7
20260902064453 89 40 5.0 14.0 0.00 0.00 0.00 69 997.7
20260902064045 89 220 7.0 17.0 0.00 0.00 0.00 69 997.8
20260902063953 89 193 7.0 17.0 0.00 0.00 0.00 69 997.7
20260902063534 90 44 4.0 19.0 0.00 0.00 0.00 69 997.8
20260902063453 90 50 6.0 19.0 0.00 0.00 0.00 68 997.8
20260902063025 89 244 4.0 12.0 0.00 0.00 0.00 69 997.8
20260902062953 89 351 4.0 12.0 0.00 0.00 0.00 69 997.8
20260902062514 89 57 2.0 20.0 0.00 0.00 0.00 70 997.8
20260902062453 89 318 2.0 20.0 0.00 0.00 0.00 70 997.8
20260902062005 88 125 9.0 18.0 0.00 0.00 0.00 70 997.8
20260902061953 88 99 9.0 18.0 0.00 0.00 0.00 70 997.8
20260902061455 88 250 10.0 19.0 0.00 0.00 0.00 70 997.8
20260902061453 88 225 10.0 19.0 0.00 0.00 0.00 70 997.8
20260902060953 87 6 7.0 32.0 0.00 0.00 0.00 72 997.8
20260902060945 87 72 8.0 32.0 0.00 0.00 0.00 72 997.8
20260902060453 87 140 14.0 27.0 0.00 0.00 0.00 72 997.9
20260902055953 88 246 15.0 23.0 0.00 0.00 0.00 72 998.0
20260902055925 88 247 17.0 23.0 0.00 0.00 0.00 71 997.9
20260902055453 87 224 12.0 24.0 0.00 0.00 0.00 72 997.9
20260902055414 87 227 11.0 24.0 0.00 0.00 0.00 72 998.0
20260902054953 87 223 15.0 21.0 0.00 0.00 0.00 71 997.9
20260902054904 88 161 15.0 21.0 0.00 0.00 0.00 71 998.0
20260902054452 88 196 11.0 21.0 0.00 0.00 0.00 71 998.0
20260902053953 88 245 10.0 24.0 0.00 0.00 0.00 71 998.1
20260902053844 87 9 9.0 24.0 0.00 0.00 0.00 72 998.1
20260902053452 88 164 14.0 22.0 0.00 0.00 0.00 70 998.1
20260902053334 88 166 11.0 21.0 0.00 0.00 0.00 70 998.1
20260902052952 88 201 14.0 22.0 0.00 0.00 0.00 70 998.1
20260902052824 88 213 11.0 24.0 0.00 0.00 0.00 70 998.1
20260902052452 88 199 11.0 23.0 0.00 0.00 0.00 70 998.0
20260902052314 88 174 12.0 17.0 0.00 0.00 0.00 70 998.1
20260902051953 88 226 10.0 29.0 0.00 0.00 0.00 70 998.2
20260902051804 88 222 12.0 29.0 0.00 0.00 0.00 70 998.2
20260902051452 88 229 15.0 30.0 0.00 0.00 0.00 70 998.2
20260902051254 88 221 13.0 30.0 0.00 0.00 0.00 70 998.3
20260902050952 87 227 1.0 33.0 0.00 0.00 0.00 72 998.3
20260902050452 87 166 9.0 20.0 0.00 0.00 0.00 72 998.4
20260902050232 86 286 9.0 33.0 0.00 0.00 0.00 73 998.5
20260902045952 86 175 15.0 33.0 0.00 0.00 0.00 72 998.5
20260902045724 86 228 12.0 22.0 0.00 0.00 0.00 72 998.5
20260902045453 86 231 8.0 29.0 0.00 0.00 0.00 72 998.6
20260902045213 86 201 14.0 29.0 0.00 0.00 0.00 72 998.6
20260902044952 86 141 16.0 25.0 0.00 0.00 0.00 72 998.6
20260902044704 86 151 10.0 21.0 0.00 0.00 0.00 73 998.8
20260902044453 86 212 10.0 23.0 0.00 0.00 0.00 72 998.7
20260902044153 87 199 17.0 23.0 0.00 0.00 0.00 72 998.6
20260902043952 87 173 9.0 14.0 0.00 0.00 0.00 72 998.7
20260902043644 87 228 6.0 17.0 0.00 0.00 0.00 73 998.8
20260902043452 86 140 8.0 17.0 0.00 0.00 0.00 73 998.8
20260902043133 86 208 9.0 22.0 0.00 0.00 0.00 72 998.8
20260902042952 87 184 12.0 22.0 0.00 0.00 0.00 72 998.8
20260902042624 87 204 9.0 20.0 0.00 0.00 0.00 71 998.8
20260902042452 88 199 11.0 18.0 0.00 0.00 0.00 71 998.8
20260902042113 88 167 5.0 10.0 0.00 0.00 0.00 70 999.1
20260902041952 88 206 4.0 10.0 0.00 0.00 0.00 71 999.1
20260902041603 87 117 2.0 19.0 0.00 0.00 0.00 71 999.1
20260902041452 87 76 7.0 19.0 0.00 0.00 0.00 71 999.1
20260902041054 87 51 8.0 26.0 0.00 0.00 0.00 72 999.1
20260902040951 87 130 11.0 26.0 0.00 0.00 0.00 71 999.1
20260902040543 87 349 7.0 13.0 0.00 0.00 0.00 71 999.3
20260902040452 87 67 6.0 13.0 0.00 0.00 0.00 72 999.2
20260902040034 87 36 7.0 18.0 0.00 0.00 0.00 72 999.3
20260902035951 86 324 6.0 18.0 0.00 0.00 0.00 72 999.3
20260902035523 86 352 8.0 16.0 0.00 0.00 0.00 72 999.4
20260902035452 86 17 7.0 21.0 0.00 0.00 0.00 72 999.5
20260902035014 87 357 8.0 19.0 0.00 0.00 0.00 71 999.3
20260902034952 87 30 8.0 19.0 0.00 0.00 0.00 72 999.4
20260902034503 87 360 9.0 17.0 0.00 0.00 0.00 72 999.4
20260902034452 87 230 7.0 17.0 0.00 0.00 0.00 72 999.5
20260902033954 85 89 8.0 14.0 0.00 0.00 0.00 74 999.3
20260902033952 85 104 8.0 14.0 0.00 0.00 0.00 74 999.3
20260902033451 84 235 5.0 17.0 0.00 0.00 0.00 76 999.4
20260902033443 84 178 6.0 17.0 0.00 0.00 0.00 76 999.4
20260902032952 84 195 10.0 20.0 0.00 0.00 0.00 76 999.3
20260902032933 84 161 8.0 20.0 0.00 0.00 0.00 76 999.5
20260902032451 83 205 9.0 14.0 0.00 0.00 0.00 76 999.4
20260902032423 83 199 8.0 16.0 0.00 0.00 0.00 76 999.4
20260902031952 83 213 12.0 24.0 0.00 0.00 0.00 77 999.4
20260902031913 83 193 11.0 24.0 0.00 0.00 0.00 77 999.3
20260902031451 83 152 11.0 15.0 0.00 0.00 0.00 77 999.3
20260902031402 83 211 9.0 14.0 0.00 0.00 0.00 77 999.3
20260902030952 83 199 5.0 18.0 0.00 0.00 0.00 77 999.3
20260902030853 82 180 9.0 18.0 0.00 0.00 0.00 77 999.3
20260902030451 82 207 8.0 22.0 0.00 0.00 0.00 77 999.3
20260902030342 82 212 12.0 22.0 0.00 0.00 0.00 77 999.3
20260902025951 82 229 12.0 19.0 0.00 0.00 0.00 77 999.3
20260902025451 82 122 12.0 24.0 0.00 0.00 0.00 77 999.3
20260902025322 82 179 11.0 24.0 0.00 0.00 0.00 77 999.3
20260902024951 83 120 9.0 16.0 0.00 0.00 0.00 77 999.3
20260902024813 83 160 7.0 16.0 0.00 0.00 0.00 77 999.4
20260902024452 83 213 8.0 16.0 0.00 0.00 0.00 77 999.3
20260902024302 83 143 9.0 17.0 0.00 0.00 0.00 77 999.3
20260902023951 83 114 11.0 17.0 0.00 0.00 0.00 76 999.4
20260902023752 83 169 4.0 20.0 0.00 0.00 0.00 77 999.3
20260902023451 83 144 11.0 20.0 0.00 0.00 0.00 77 999.2
20260902023243 83 109 4.0 16.0 0.00 0.00 0.00 77 999.2
20260902022952 83 194 6.0 20.0 0.00 0.00 0.00 77 999.3
20260902022732 82 213 10.0 20.0 0.00 0.00 0.00 77 999.3
20260902022451 82 196 10.0 19.0 0.00 0.00 0.00 77 999.3
20260902022222 82 103 7.0 19.0 0.00 0.00 0.00 77 999.4
20260902021951 82 198 9.0 20.0 0.00 0.00 0.00 78 999.3
20260902021713 82 197 12.0 20.0 0.00 0.00 0.00 78 999.3
20260902021450 82 202 10.0 20.0 0.00 0.00 0.00 78 999.3
20260902021202 82 206 11.0 28.0 0.00 0.00 0.00 78 999.4
20260902020951 81 175 8.0 28.0 0.00 0.00 0.00 78 999.4
20260902020652 81 141 11.0 22.0 0.00 0.00 0.00 79 999.3
20260902020451 81 205 15.0 26.0 0.00 0.00 0.00 79 999.3
20260902020143 81 219 16.0 26.0 0.00 0.00 0.00 78 999.2
20260902015951 81 182 9.0 19.0 0.00 0.00 0.00 79 999.3
20260902015632 82 164 10.0 23.0 0.00 0.00 0.00 79 999.2
20260902015451 81 203 6.0 23.0 0.00 0.00 0.00 79 999.2
20260902015122 81 137 7.0 20.0 0.00 0.00 0.00 79 999.3
20260902014951 81 229 14.0 24.0 0.00 0.00 0.00 79 999.3
20260902014612 81 140 7.0 25.0 0.00 0.00 0.00 79 999.2
20260902014451 81 209 10.0 25.0 0.00 0.00 0.00 79 999.3
20260902014102 81 219 10.0 23.0 0.00 0.00 0.00 79 999.2
20260902013951 81 197 11.0 23.0 0.00 0.00 0.00 79 999.2
20260902013551 81 206 10.0 22.0 0.00 0.00 0.00 79 999.2
20260902013450 81 235 14.0 22.0 0.00 0.00 0.00 79 999.2
20260902013042 81 131 7.0 19.0 0.00 0.00 0.00 79 999.3
20260902012951 81 146 10.0 19.0 0.00 0.00 0.00 79 999.3
20260902012532 81 192 8.0 22.0 0.00 0.00 0.00 79 999.3
20260902012451 81 252 12.0 22.0 0.00 0.00 0.00 79 999.3
20260902012022 81 194 6.0 21.0 0.00 0.00 0.00 79 999.3
20260902011950 81 113 5.0 21.0 0.00 0.00 0.00 79 999.4
20260902011451 81 192 2.0 18.0 0.00 0.00 0.00 79 999.4
20260902011002 81 144 3.0 17.0 0.00 0.00 0.00 78 999.4
20260902010950 81 114 3.0 17.0 0.00 0.00 0.00 78 999.3
20260902010454 81 169 4.0 15.0 0.00 0.00 0.00 79 999.3
20260902010452 81 171 4.0 15.0 0.00 0.00 0.00 79 999.3
20260902005950 81 24 1.0 10.0 0.00 0.00 0.00 79 999.2
20260902005942 81 348 2.0 10.0 0.00 0.00 0.00 79 999.3
20260902005450 81 158 8.0 11.0 0.00 0.00 0.00 80 999.3
20260902005432 81 149 8.0 11.0 0.00 0.00 0.00 80 999.3
20260902004951 80 106 6.0 17.0 0.00 0.00 0.00 81 999.3
20260902004922 80 165 8.0 17.0 0.00 0.00 0.00 81 999.3
20260902004450 80 85 3.0 10.0 0.00 0.00 0.00 82 999.3
20260902004412 80 342 3.0 11.0 0.00 0.00 0.00 82 999.3
20260902003951 80 98 7.0 18.0 0.00 0.00 0.00 82 999.3
20260902003902 80 201 9.0 18.0 0.00 0.00 0.00 82 999.3
20260902003450 80 196 6.0 16.0 0.00 0.00 0.00 82 999.4
20260902003351 80 176 6.0 16.0 0.00 0.00 0.00 82 999.4
20260902002950 79 210 5.0 19.0 0.00 0.00 0.00 82 999.3
20260902002842 79 188 9.0 19.0 0.00 0.00 0.00 82 999.3
20260902002450 80 188 10.0 20.0 0.00 0.00 0.00 82 999.3
20260902002331 80 195 11.0 20.0 0.00 0.00 0.00 82 999.3
20260902001950 80 151 10.0 21.0 0.00 0.00 0.00 81 999.3
20260902001821 80 124 10.0 21.0 0.00 0.00 0.00 82 999.2
20260902001450 80 179 10.0 17.0 0.00 0.00 0.00 81 999.2
20260902001312 80 157 5.0 12.0 0.00 0.00 0.00 81 999.2
20260902000950 80 204 6.0 13.0 0.00 0.00 0.00 81 999.1
20260902000801 80 134 8.0 13.0 0.00 0.00 0.00 81 999.1
20260902000451 80 84 1.0 11.0 0.00 0.00 0.00 81 999.1
20260902000252 80 210 6.0 11.0 0.00 0.00 0.00 81 999.1
20260901235951 80 59 3.0 10.0 0.00 0.00 0.00 81 999.1
20260901235741 80 62 2.0 14.0 0.00 0.00 0.00 81 999.0
20260901235450 80 225 8.0 14.0 0.00 0.00 0.00 81 999.0
20260901234950 80 269 3.0 10.0 0.00 0.00 0.00 81 998.9
20260901234721 80 168 4.0 10.0 0.00 0.00 0.00 81 998.8
20260901234450 80 116 6.0 15.0 0.00 0.00 0.00 81 998.8
20260901234211 80 115 3.0 15.0 0.00 0.00 0.00 81 998.8
20260901233950 80 101 3.0 9.0 0.00 0.00 0.00 82 998.7
20260901233701 80 240 2.0 10.0 0.00 0.00 0.00 82 998.7
20260901233450 80 104 4.0 13.0 0.00 0.00 0.00 82 998.7
20260901233152 80 129 3.0 14.0 0.00 0.00 0.00 81 998.6
20260901232950 80 214 7.0 14.0 0.00 0.00 0.00 81 998.6
20260901232641 80 148 7.0 12.0 0.00 0.00 0.00 81 998.5
20260901232450 80 182 4.0 9.0 0.00 0.00 0.00 82 998.5
20260901232131 80 111 6.0 16.0 0.00 0.00 0.00 81 998.5
20260901231950 80 121 3.0 16.0 0.00 0.00 0.00 81 998.5
20260901231621 80 185 6.0 14.0 0.00 0.00 0.00 81 998.5
20260901231449 80 96 5.0 14.0 0.00 0.00 0.00 81 998.4
20260901231111 80 253 1.0 17.0 0.00 0.00 0.00 82 998.4
20260901230950 80 52 2.0 17.0 0.00 0.00 0.00 81 998.4
20260901230601 80 171 6.0 11.0 0.00 0.00 0.00 81 998.4
20260901230449 80 266 5.0 11.0 0.00 0.00 0.00 81 998.4
20260901230051 80 173 5.0 16.0 0.00 0.00 0.00 81 998.4
20260901225949 80 216 3.0 16.0 0.00 0.00 0.00 82 998.3
20260901225541 79 127 9.0 16.0 0.00 0.00 0.00 82 998.2
20260901225450 79 184 9.0 16.0 0.00 0.00 0.00 82 998.2
20260901225030 79 165 3.0 7.0 0.00 0.00 0.00 82 998.1
20260901224949 79 80 1.0 8.0 0.00 0.00 0.00 82 998.1
20260901224521 79 213 9.0 13.0 0.00 0.00 0.00 82 998.0
20260901224449 79 209 10.0 13.0 0.00 0.00 0.00 82 998.0
20260901223950 79 222 8.0 12.0 0.00 0.00 0.00 83 998.1
20260901223500 79 114 1.0 16.0 0.00 0.00 0.00 83 998.1
20260901223449 79 104 2.0 16.0 0.00 0.00 0.00 83 998.1
20260901222949 79 155 4.0 11.0 0.00 0.00 0.00 83 998.1
20260901222450 79 223 8.0 14.0 0.00 0.00 0.00 83 998.0
20260901222441 79 239 6.0 14.0 0.00 0.00 0.00 83 998.0
20260901221949 79 95 3.0 11.0 0.00 0.00 0.00 83 998.0
20260901221930 79 168 3.0 11.0 0.00 0.00 0.00 83 998.0
20260901221449 79 155 9.0 14.0 0.00 0.00 0.00 83 998.0
20260901221420 79 176 7.0 14.0 0.00 0.00 0.00 83 997.9
20260901220949 79 204 2.0 9.0 0.00 0.00 0.00 83 998.0
20260901220911 79 360 4.0 12.0 0.00 0.00 0.00 83 998.0
20260901220449 79 121 9.0 14.0 0.00 0.00 0.00 83 997.9
20260901220400 79 161 6.0 14.0 0.00 0.00 0.00 83 997.9
20260901215949 79 156 7.0 20.0 0.00 0.00 0.00 82 997.8
20260901215851 79 213 13.0 20.0 0.00 0.00 0.00 82 997.8
20260901215450 79 360 3.0 18.0 0.00 0.00 0.00 82 997.8
20260901215340 79 274 11.0 18.0 0.00 0.00 0.00 82 997.7
20260901214949 79 90 3.0 15.0 0.00 0.00 0.00 83 997.8
20260901214830 79 43 3.0 15.0 0.00 0.00 0.00 83 997.7
20260901214449 79 123 7.0 14.0 0.00 0.00 0.00 83 997.7
20260901214321 79 174 2.0 7.0 0.00 0.00 0.00 83 997.7
20260901213948 79 35 3.0 7.0 0.00 0.00 0.00 83 997.6
20260901213810 79 122 4.0 10.0 0.00 0.00 0.00 83 997.7
20260901213449 79 58 5.0 13.0 0.00 0.00 0.00 84 997.7
20260901213300 79 98 7.0 13.0 0.00 0.00 0.00 84 997.7
20260901212949 79 134 6.0 12.0 0.00 0.00 0.00 84 997.7
20260901212751 79 179 3.0 7.0 0.00 0.00 0.00 84 997.7
20260901212449 79 159 3.0 21.0 0.00 0.00 0.00 85 997.8
20260901212240 79 357 2.0 21.0 0.00 0.00 0.00 85 997.7
20260901211949 79 180 4.0 12.0 0.00 0.00 0.00 85 997.8
20260901211730 79 255 2.0 18.0 0.00 0.00 0.00 85 997.8
20260901211449 78 166 2.0 18.0 0.00 0.00 0.00 85 997.8
20260901211220 78 263 3.0 11.0 0.00 0.00 0.00 85 997.8